Weather History for Bentonville, AR

Change the Weather History Date:

Saturday, December 21, 2013

  Actual Average Record
Temperature  
Mean Temperature 36 °F -  
Max Temperature 39 °F 46 °F 68 °F (1966)
Min Temperature 32 °F 24 °F 2 °F (1951)
Degree Days  
Heating Degree Days 30    
Moisture  
Dew Point 33 °F    
Average Humidity 88    
Maximum Humidity 93    
Minimum Humidity 81    
Precipitation  
Precipitation 1.15 in - - ()
Sea Level Pressure  
Sea Level Pressure 29.65 in    
Wind  
Wind Speed 7 mph (NNE)    
Max Wind Speed 16 mph    
Max Gust Speed 22 mph    
Visibility 7 miles    
Events Thunderstorm    
Averages and records for this station are not official NWS values.
T = Trace of Precipitation, MM = Missing Value Source: NWS Daily Summary

Daily Weather History Graph

Daily Weather History Graph

Search for Another Location

Airport:

Trip Planner

Search our weather history database for the weather conditions in past years. The results will help you decide how hot, cold, wet, or windy it might be!

Date:

Astronomy

Dec. 21, 2013 Rise Set
Actual Time 7:24 AM CST 5:05 PM CST
Civil Twilight 6:55 AM CST 5:34 PM CST
Nautical Twilight 6:23 AM CST 6:06 PM CST
Astronomical Twilight 5:52 AM CST 6:38 PM CST
Moon 9:16 PM CST (12/21) 9:57 AM CST (12/21)
Length of Visible Light 10h 38m
Length of Day
9h 40m
Waning Gibbous, 84% of the Moon is Illuminated
Dec 21
Waning Gibbous
Dec 25
Last Quarter
Jan 1
New
Jan 7
First Quarter
Jan 15
Full

Hourly Weather History & Observations

Time (CST) Temp. Windchill Dew Point Humidity Pressure Visibility Wind Dir Wind Speed Gust Speed Precip Events Conditions
12:15 AM 32.0 °F 23.6 °F 28.4 °F 87% 29.76 in 2.5 mi North 10.4 mph 18.4 mph 0.11 in   Overcast
12:35 AM 32.0 °F 25.6 °F 28.4 °F 87% 29.78 in 3.0 mi North 6.9 mph - 0.12 in   Overcast
12:55 AM 32.0 °F 25.6 °F 28.4 °F 87% 29.74 in 2.5 mi NNE 6.9 mph - 0.21 in Thunderstorm Thunderstorm
1:15 AM 32.0 °F 25.6 °F 28.4 °F 87% 29.73 in 2.5 mi East 6.9 mph - 0.10 in Thunderstorm Overcast
1:35 AM 33.8 °F 27.0 °F 28.4 °F 81% 29.70 in 2.5 mi NNE 8.1 mph - 0.18 in   Overcast
1:55 AM 33.8 °F 25.8 °F 30.2 °F 87% 29.71 in 6.0 mi East 10.4 mph - 0.21 in   Overcast
2:15 AM 33.8 °F 27.7 °F 30.2 °F 87% 29.74 in 4.0 mi NNW 6.9 mph - 0.04 in   Overcast
2:35 AM 33.8 °F 30.8 °F 30.2 °F 87% 29.74 in 3.0 mi NNW 3.5 mph - 0.11 in   Overcast
2:55 AM 33.8 °F 29.6 °F 30.2 °F 87% 29.75 in 6.0 mi West 4.6 mph - 0.12 in   Overcast
3:15 AM 33.8 °F 29.6 °F 30.2 °F 87% 29.72 in 7.0 mi NNE 4.6 mph - N/A   Overcast
3:35 AM 33.8 °F 28.6 °F 30.2 °F 87% 29.71 in 5.0 mi ENE 5.8 mph - 0.02 in   Overcast
3:55 AM 33.8 °F 28.6 °F 30.2 °F 87% 29.70 in 7.0 mi North 5.8 mph - 0.03 in   Overcast
4:15 AM 33.8 °F 27.0 °F 30.2 °F 87% 29.70 in 9.0 mi North 8.1 mph - N/A   Overcast
4:35 AM 33.8 °F 27.0 °F 30.2 °F 87% 29.75 in 4.0 mi NW 8.1 mph - 0.04 in   Overcast
4:55 AM 33.8 °F 27.0 °F 30.2 °F 87% 29.78 in 5.0 mi NW 8.1 mph - 0.12 in   Overcast
5:15 AM 33.8 °F 27.0 °F 30.2 °F 87% 29.74 in 5.0 mi North 8.1 mph - 0.05 in   Overcast
5:35 AM 33.8 °F 25.8 °F 30.2 °F 87% 29.71 in 10.0 mi North 10.4 mph - 0.05 in   Overcast
5:55 AM 33.8 °F 29.6 °F 28.4 °F 81% 29.75 in 10.0 mi NNW 4.6 mph - 0.05 in   Overcast
6:15 AM 33.8 °F 30.8 °F 28.4 °F 81% 29.75 in 9.0 mi North 3.5 mph - 0.03 in   Overcast
6:35 AM 33.8 °F - 28.4 °F 81% 29.74 in 10.0 mi Calm Calm - 0.04 in   Overcast
6:55 AM 33.8 °F - 30.2 °F 87% 29.74 in 5.0 mi Calm Calm - 0.07 in   Overcast
7:15 AM 33.8 °F 28.6 °F 30.2 °F 87% 29.70 in 9.0 mi ENE 5.8 mph - 0.03 in   Mostly Cloudy
7:35 AM 33.8 °F 28.6 °F 30.2 °F 87% 29.68 in 10.0 mi East 5.8 mph - 0.03 in   Mostly Cloudy
7:55 AM 33.8 °F 29.6 °F 30.2 °F 87% 29.69 in 8.0 mi East 4.6 mph - 0.04 in   Mostly Cloudy
8:15 AM 33.8 °F 29.6 °F 30.2 °F 87% 29.66 in 4.0 mi East 4.6 mph - 0.04 in   Overcast
8:35 AM 35.6 °F 29.9 °F 30.2 °F 81% 29.66 in 8.0 mi ESE 6.9 mph - 0.05 in   Overcast
8:55 AM 35.6 °F 28.0 °F 32.0 °F 87% 29.68 in 6.0 mi SE 10.4 mph - 0.07 in   Mostly Cloudy
9:15 AM 35.6 °F 29.9 °F 33.8 °F 93% 29.67 in 9.0 mi ESE 6.9 mph - 0.01 in   Overcast
9:35 AM 35.6 °F - 33.8 °F 93% 29.68 in 10.0 mi Calm Calm - 0.01 in   Overcast
9:55 AM 37.4 °F 32.8 °F 33.8 °F 87% 29.67 in 10.0 mi North 5.8 mph - 0.01 in   Overcast
10:15 AM 37.4 °F 31.4 °F 33.8 °F 87% 29.66 in 10.0 mi ENE 8.1 mph - 0.01 in   Overcast
10:35 AM 37.4 °F 31.4 °F 33.8 °F 87% 29.65 in 10.0 mi East 8.1 mph - 0.01 in   Overcast
10:55 AM 37.4 °F 34.9 °F 35.6 °F 93% 29.64 in 10.0 mi NNE 3.5 mph - 0.01 in   Overcast
11:15 AM 37.4 °F 32.8 °F 35.6 °F 93% 29.64 in 10.0 mi North 5.8 mph - N/A   Overcast
11:35 AM 35.6 °F 28.6 °F 32.0 °F 87% 29.63 in 5.0 mi NNW 9.2 mph - N/A   Overcast
11:55 AM 35.6 °F 29.9 °F 32.0 °F 87% 29.65 in 9.0 mi North 6.9 mph - N/A   Overcast
12:15 PM 35.6 °F 29.9 °F 32.0 °F 87% 29.63 in 6.0 mi NE 6.9 mph - 0.02 in   Overcast
12:35 PM 35.6 °F 29.9 °F 33.8 °F 93% 29.62 in 6.0 mi NNE 6.9 mph - 0.04 in   Overcast
12:55 PM 35.6 °F 29.9 °F 33.8 °F 93% 29.60 in 9.0 mi NNE 6.9 mph - 0.05 in   Overcast
1:15 PM 35.6 °F 31.7 °F 33.8 °F 93% 29.60 in 9.0 mi NE 4.6 mph - 0.02 in   Overcast
1:35 PM 37.4 °F 32.8 °F 33.8 °F 87% 29.57 in 8.0 mi NE 5.8 mph - 0.04 in   Overcast
1:55 PM 37.4 °F 33.8 °F 33.8 °F 87% 29.54 in 10.0 mi NE 4.6 mph - 0.06 in   Overcast
2:15 PM 37.4 °F 33.8 °F 35.6 °F 93% 29.54 in 10.0 mi ENE 4.6 mph - 0.01 in   Overcast
2:35 PM 39.2 °F - 35.6 °F 87% 29.55 in 10.0 mi Calm Calm - 0.03 in   Overcast
2:55 PM 39.2 °F 37.0 °F 37.4 °F 93% 29.57 in 8.0 mi ESE 3.5 mph - 0.05 in   Overcast
3:15 PM 39.2 °F 35.9 °F 35.6 °F 87% 29.57 in 8.0 mi SE 4.6 mph - 0.02 in   Overcast
3:35 PM 39.2 °F - 37.4 °F 93% 29.56 in 10.0 mi Calm Calm - 0.03 in   Overcast
3:55 PM 39.2 °F 37.0 °F 37.4 °F 93% 29.57 in 10.0 mi NNE 3.5 mph - 0.03 in   Overcast
4:15 PM 39.2 °F - 37.4 °F 93% 29.59 in 10.0 mi Calm Calm - N/A   Overcast
4:35 PM 39.2 °F 34.2 °F 35.6 °F 87% 29.56 in 10.0 mi NNE 6.9 mph - 0.01 in   Overcast
4:55 PM 39.2 °F 31.6 °F 35.6 °F 87% 29.49 in 9.0 mi NE 12.7 mph - 0.02 in   Overcast
5:15 PM 39.2 °F 32.5 °F 35.6 °F 87% 29.47 in 3.0 mi ENE 10.4 mph - N/A   Overcast
5:35 PM 39.2 °F 32.5 °F 35.6 °F 87% 29.48 in 10.0 mi East 10.4 mph - N/A   Overcast
5:55 PM 39.2 °F 33.6 °F 35.6 °F 87% 29.47 in 10.0 mi East 8.1 mph - N/A   Overcast
6:15 PM 39.2 °F 35.9 °F 35.6 °F 87% 29.48 in 7.0 mi East 4.6 mph - N/A   Overcast
6:35 PM 39.2 °F 34.2 °F 37.4 °F 93% 29.54 in 10.0 mi West 6.9 mph - N/A   Overcast
6:55 PM 39.2 °F 35.0 °F 37.4 °F 93% 29.54 in 2.0 mi WNW 5.8 mph - N/A   Overcast
7:15 PM 39.2 °F 35.0 °F 35.6 °F 87% 29.56 in 1.0 mi West 5.8 mph - N/A   Overcast
7:35 PM 39.2 °F - 35.6 °F 87% 29.56 in 0.8 mi Calm Calm - N/A   Overcast
7:55 PM 37.4 °F 32.1 °F 35.6 °F 93% 29.59 in 0.8 mi West 6.9 mph - N/A   Overcast
8:15 PM 37.4 °F 28.2 °F 35.6 °F 93% 29.61 in 0.8 mi WSW 16.1 mph 21.9 mph N/A   Overcast
8:35 PM 37.4 °F 30.8 °F 33.8 °F 87% 29.63 in 4.0 mi WSW 9.2 mph - N/A   Overcast
8:55 PM 37.4 °F 30.8 °F 33.8 °F 87% 29.64 in 5.0 mi SW 9.2 mph - N/A   Overcast
9:15 PM 37.4 °F 29.8 °F 33.8 °F 87% 29.64 in 10.0 mi WSW 11.5 mph 16.1 mph N/A   Overcast
9:35 PM 37.4 °F 29.8 °F 33.8 °F 87% 29.64 in 10.0 mi WSW 11.5 mph - N/A   Overcast
9:55 PM 35.6 °F 28.0 °F 33.8 °F 93% 29.64 in 10.0 mi WSW 10.4 mph - N/A   Overcast
10:15 PM 35.6 °F 27.5 °F 33.8 °F 93% 29.66 in 10.0 mi WSW 11.5 mph 19.6 mph N/A   Overcast
10:35 PM 35.6 °F 27.1 °F 32.0 °F 87% 29.66 in 8.0 mi WSW 12.7 mph 17.3 mph N/A   Overcast
10:55 PM 35.6 °F 29.2 °F 32.0 °F 87% 29.68 in 9.0 mi WSW 8.1 mph - N/A   Overcast
11:15 PM 35.6 °F 28.0 °F 32.0 °F 87% 29.67 in 10.0 mi WSW 10.4 mph - N/A   Overcast
11:35 PM 33.8 °F 25.8 °F 32.0 °F 93% 29.69 in 3.0 mi WSW 10.4 mph 17.3 mph N/A   Overcast
11:55 PM 33.8 °F 25.3 °F 30.2 °F 87% 29.70 in 7.0 mi WSW 11.5 mph 19.6 mph N/A   Overcast